Simultaneous Nadir Overpasses (SNOs) Predictions

Prediction of SNOs between AURA and NPP Satellite Orbit:

Table of predicted SNOs for the next 14.0 days since TLE Epoch: 8/2/2014
Index Date (AURA) Time (AURA) Lat,Lon (AURA) SZA (AURA ) Date (NPP) Time (NPP) Lat,Lon (NPP) SZA (NPP ) Distance(km) Time Diff (sec)
1 08/04/2014 14:13:50 -75.00, 24.97 98.57 08/04/2014 14:12:37 -75.00, 24.94 98.50 0.90 73
2 08/04/2014 15:02:51 76.20,-163.93 80.07 08/04/2014 15:02:55 76.21,-163.88 80.05 1.44 4
3 08/07/2014 06:30:14 -75.26, 141.53 98.16 08/07/2014 06:29:20 -75.26, 141.51 98.11 0.59 54
4 08/07/2014 07:19:15 76.45, -47.27 80.49 08/07/2014 07:19:38 76.45, -47.18 80.45 2.33 23
5 08/09/2014 22:46:36 -75.64,-101.53 97.87 08/09/2014 22:46:01 -75.65,-101.47 97.85 1.75 35
6 08/09/2014 23:35:45 76.42, 68.54 81.24 08/09/2014 23:36:28 76.42, 68.51 81.21 0.84 43
7 08/12/2014 15:03:03 -75.75, 14.66 97.24 08/12/2014 15:02:48 -75.75, 14.67 97.23 0.18 15
8 08/12/2014 15:52:12 76.53,-175.24 81.88 08/12/2014 15:53:15 76.52,-175.31 81.84 2.01 63
9 08/15/2014 06:30:23 74.78, -39.75 84.63 08/15/2014 06:29:12 74.77, -39.79 84.71 1.24 71
10 08/15/2014 07:19:27 -75.98, 131.24 96.73 08/15/2014 07:19:32 -75.99, 131.26 96.74 0.66 5




NCC Satellite Simultaneous Nadir Overpasses (SNOs) Prediction Service
